Location: ??
(35.5653°N, 139.6194°E)
Time: 15:31:39
(UTC+00:00)

Sich 1 - Pass Details

Date: 20 November 2019
Orbit: 595 x 625 km, 82.5° (Epoch: 05 December)

Event Time Altitude Azimuth Distance (km) Brightness Sun altitude
Rises 20:21:58 0° 169° (S) 2,820 6.8 -12.4°
Reaches altitude 10° 20:24:15 10° 162° (SSE) 1,922 6.1 -11.9°
Maximum altitude 20:28:14 40° 92° (E) 876 4.5 -11.1°
Drops below altitude 10° 20:32:14 10° 23° (NNE) 1,937 5.7 -10.4°
Sets 20:34:32 0° 16° (NNE) 2,845 6.5 -9.9°
